Pensacola, FL

5:20 PM CDT on March 23, 2017 (GMT -0500)
Pensacola Regional

Weather History for KPNS - September, 2014

Change the Weather History Date:

Friday, September 19, 2014

  Actual Average Record
Temperature  
Mean Temperature 77 °F 78 °F  
Max Temperature 83 °F 86 °F 97 °F (2005)
Min Temperature 71 °F 70 °F 49 °F (1981)
Cooling Degree Days 12 13  
Month to date cooling degree days 297 279  
Year to date cooling degree days 2253 2246  
Growing Degree Days 26 (Base 50)    
Moisture  
Dew Point 70 °F    
Average Humidity 81    
Maximum Humidity 100    
Minimum Humidity 62    
Precipitation  
Precipitation 0.17 in 0.19 in 5.60 in (1947)
Month to date precipitation 5.09 3.79  
Year to date precipitation 73.84 48.56  
Sea Level Pressure  
Sea Level Pressure 29.96 in    
Wind  
Wind Speed 6 mph (ENE)    
Max Wind Speed 17 mph    
Max Gust Speed 24 mph    
Visibility 10 miles    
Events Rain    
T = Trace of Precipitation, MM = Missing Value Source: NWS Daily Summary

Daily Weather History Graph

Daily Weather History Graph

Search for Another Location

Airport or City:

Trip Planner

Search our weather history database for the weather conditions in past years. The results will help you decide how hot, cold, wet, or windy it might be!

Date:

Astronomy

Sep. 19, 2014 Rise Set
Actual Time 6:35 AM CDT 6:49 PM CDT
Civil Twilight 6:11 AM CDT 7:13 PM CDT
Nautical Twilight 5:43 AM CDT 7:41 PM CDT
Astronomical Twilight 5:14 AM CDT 8:09 PM CDT
Moon 2:34 AM CDT (9/19) 4:05 PM CDT (9/19)
Length of Visible Light 13h 01m
Length of Day
12h 13m
Waning Crescent, 18% of the Moon is Illuminated
Sep 19
Waning Crescent
Sep 24
New
Oct 1
First Quarter
Oct 8
Full
Oct 15
Last Quarter

Hourly Weather History & Observations

Time (CDT) Temp. Heat Index Dew Point Humidity Pressure Visibility Wind Dir Wind Speed Gust Speed Precip Events Conditions
12:53 AM 73.9 °F - 72.0 °F 93% 29.94 in 10.0 mi Calm Calm - N/A   Clear
1:53 AM 73.9 °F - 72.0 °F 93% 29.93 in 10.0 mi North 3.5 mph - N/A   Mostly Cloudy
2:53 AM 73.9 °F - 71.1 °F 91% 29.91 in 10.0 mi North 6.9 mph - N/A   Partly Cloudy
3:53 AM 73.0 °F - 70.0 °F 90% 29.92 in 10.0 mi NNW 6.9 mph - N/A   Mostly Cloudy
4:53 AM 72.0 °F - 70.0 °F 93% 29.92 in 10.0 mi North 4.6 mph - 0.00 in   Scattered Clouds
5:53 AM 73.0 °F - 69.1 °F 87% 29.94 in 10.0 mi NNE 5.8 mph - N/A   Mostly Cloudy
6:53 AM 72.0 °F - 71.1 °F 97% 29.95 in 10.0 mi Calm Calm - 0.01 in   Mostly Cloudy
7:53 AM 71.6 °F - 71.6 °F 100% 29.96 in 6.0 mi South 4.6 mph - N/A Rain Heavy Rain
8:53 AM 72.0 °F - 70.0 °F 93% 29.97 in 10.0 mi Calm Calm - 0.05 in Rain Light Rain
9:00 AM 72.0 °F - 71.1 °F 97% 29.97 in 10.0 mi Calm Calm - 0.00 in Rain Light Rain
9:26 AM 73.9 °F - 71.1 °F 91% 29.97 in 10.0 mi NW 4.6 mph - 0.00 in   Scattered Clouds
9:53 AM 73.9 °F - 72.0 °F 93% 29.99 in 10.0 mi NW 4.6 mph - 0.00 in   Clear
10:53 AM 75.9 °F - 71.1 °F 85% 30.00 in 10.0 mi NNE 5.8 mph - N/A   Clear
11:53 AM 80.1 °F 83.2 °F 70.0 °F 71% 29.99 in 10.0 mi NE 3.5 mph - N/A   Clear
12:53 PM 82.0 °F 86.3 °F 71.1 °F 69% 29.98 in 10.0 mi ENE 8.1 mph - N/A   Scattered Clouds
1:53 PM 80.1 °F 83.6 °F 71.1 °F 74% 29.98 in 10.0 mi South 13.8 mph - N/A   Partly Cloudy
2:53 PM 81.0 °F 84.9 °F 71.1 °F 72% 29.96 in 10.0 mi SSE 10.4 mph - N/A   Partly Cloudy
3:53 PM 81.0 °F 84.1 °F 69.1 °F 67% 29.95 in 10.0 mi South 8.1 mph - N/A   Clear
4:53 PM 81.0 °F 83.3 °F 66.9 °F 62% 29.95 in 10.0 mi SSE 8.1 mph - N/A   Clear
5:53 PM 80.1 °F 82.3 °F 66.9 °F 64% 29.95 in 10.0 mi SSE 8.1 mph - N/A   Clear
6:53 PM 77.0 °F - 68.0 °F 74% 29.96 in 10.0 mi ESE 4.6 mph - N/A   Clear
7:53 PM 78.1 °F - 69.1 °F 74% 29.96 in 10.0 mi SE 12.7 mph 19.6 mph N/A   Scattered Clouds
8:53 PM 75.9 °F - 68.0 °F 76% 29.98 in 10.0 mi SE 9.2 mph - N/A   Clear
9:53 PM 77.0 °F - 68.0 °F 74% 30.00 in 10.0 mi East 9.2 mph - N/A   Clear
10:53 PM 73.9 °F - 69.1 °F 85% 30.00 in 10.0 mi NE 4.6 mph - N/A   Clear
11:53 PM 73.0 °F - 68.0 °F 84% 30.00 in 10.0 mi NE 5.8 mph - N/A   Clear